CDT,Max TemperatureF,Mean TemperatureF,Min TemperatureF,Max Dew PointF,MeanDew PointF,Min DewpointF,Max Humidity, Mean Humidity, Min Humidity, Max Sea Level PressureIn, Mean Sea Level PressureIn, Min Sea Level PressureIn, Max VisibilityMiles, Mean VisibilityMiles, Min VisibilityMiles, Max Wind SpeedMPH, Mean Wind SpeedMPH, Max Gust SpeedMPH,PrecipitationIn, CloudCover, Events, WindDirDegrees
2012-10-1,68,55,42,46,42,37,82,62,37,29.95,29.90,29.84,10,10,5,7,3,,0.00,0,,106
2012-10-2,71,58,46,46,44,41,93,64,35,29.94,29.90,29.86,10,10,7,9,4,,0.00,0,,33
2012-10-3,73,58,42,50,43,41,93,63,33,30.01,29.96,29.92,10,10,5,8,4,,0.00,0,,114
2012-10-4,60,50,41,52,42,32,94,70,36,30.17,30.04,29.96,10,10,10,17,9,26,0.00,2,,231
2012-10-5,44,38,32,32,25,18,93,59,36,30.19,30.14,30.09,10,10,10,21,8,25,0.00,0,,262
2012-10-6,42,38,33,28,27,23,75,64,49,30.21,30.17,30.10,10,10,10,14,8,20,0.00,7,,291
2012-10-7,50,42,33,30,22,16,87,53,26,30.21,30.15,30.09,10,10,10,15,4,20,0.00,4,,249
2012-10-8,60,46,32,32,28,19,80,51,31,30.08,29.97,29.87,10,10,5,26,12,33,0.00,1,,177
2012-10-9,60,50,37,43,36,32,93,63,42,29.95,29.86,29.80,10,10,4,18,13,24,0.09,5,,236
2012-10-10,50,41,32,32,28,25,87,67,37,30.14,30.08,29.95,10,10,10,22,10,26,0.00,2,,258
2012-10-11,60,48,37,37,31,23,71,56,34,30.31,30.11,30.03,10,10,10,22,11,30,0.00,3,,252
2012-10-12,53,42,30,28,22,14,75,48,22,30.47,30.35,30.19,10,10,10,14,8,20,0.00,1,,88
2012-10-13,62,52,41,61,49,36,94,88,76,30.15,29.90,29.72,10,6,1,18,12,26,0.33,8,,170
2012-10-14,62,52,41,61,51,37,100,91,81,29.84,29.65,29.49,10,7,0,20,8,31,1.30,7,,277
2012-10-15,59,47,35,41,37,32,93,70,45,29.98,29.92,29.85,10,10,10,12,6,17,0.00,0,,269
2012-10-16,69,56,44,52,45,37,87,68,46,29.91,29.65,29.45,10,10,10,23,10,30,0.00,1,,139
2012-10-17,62,54,46,55,49,41,94,80,63,29.48,29.40,29.32,10,9,3,20,11,26,0.45,4,,191
2012-10-18,46,44,42,41,39,37,93,84,76,29.38,29.33,29.30,10,10,3,20,12,24,0.00,8,,215
2012-10-19,50,44,37,41,38,34,93,81,58,29.70,29.54,29.38,10,10,4,12,5,,0.00,6,,322
2012-10-20,55,44,32,41,35,32,100,77,47,29.92,29.81,29.70,10,8,0,12,5,16,0.00,1,,249
2012-10-21,68,52,37,50,43,36,93,70,43,29.97,29.93,29.89,10,10,7,16,8,21,0.00,0,,129
2012-10-22,62,58,53,59,55,50,100,91,77,29.94,29.90,29.86,10,6,0,12,7,,0.58,7,,94
2012-10-23,71,64,57,64,59,55,100,87,69,29.89,29.85,29.81,10,5,0,15,11,16,0.00,8,,133
2012-10-24,77,68,60,64,62,59,94,81,65,29.89,29.82,29.73,10,8,4,21,10,24,0.00,6,,158
2012-10-25,68,52,37,63,50,30,94,81,73,30.14,29.78,29.60,10,9,2,25,18,34,0.12,7,,231
2012-10-26,44,38,32,30,28,25,87,70,49,30.36,30.30,30.15,10,10,10,18,11,25,0.00,1,,297
2012-10-27,42,35,28,28,24,19,87,66,42,30.38,30.33,30.29,10,10,5,10,3,,0.00,1,,354
2012-10-28,46,37,28,27,23,19,75,59,40,30.36,30.33,30.30,10,9,0,10,4,,0.00,0,,35
2012-10-29,48,37,26,30,24,19,87,60,32,30.36,30.30,30.18,10,9,4,9,5,,0.00,0,,15
2012-10-30,46,39,32,27,23,21,80,58,37,30.17,30.01,29.90,10,10,10,23,11,29,0.00,0,,340
2012-10-31,48,38,28,25,21,16,80,57,27,29.94,29.91,29.88,10,10,10,16,12,23,0.00,0,,312